Regional Weather Roundup
Issued by NWS

Home | Current Version | Previous Version | Text Only | Print | Product List | Glossary Off
Versions: 1 2 3 4 5 6 7 8 9 10 11 12 13 14 15 16 17 18 19 20 21 22 23 24 25 26 27 28 29 30 31 32 33 34 35 36 37 38 39 40 41 42 43 44 45 46 47 48 49 50

000
ASUS43 KMKX 180700
RWRWI

WISCONSIN REGIONAL WEATHER ROUNDUP
NATIONAL WEATHER SERVICE MILWAUKEE/SULLIVAN WI
200 AM CDT FRI APR 18 2014

NOTE: "FAIR" INDICATES FEW OR NO CLOUDS BELOW 12,000 FEET WITH NO
SIGNIFICANT WEATHER AND/OR OBSTRUCTIONS TO VISIBILITY.

WIZ001-002-006>008-014>016-023>028-180800-
NORTHWEST WISCONSIN

CITY           SKY/WX    TMP DP  RH WIND       PRES   REMARKS
SUPERIOR ARPT  MOCLDY    24  22  90 CALM      30.34S
ASHLAND        PTCLDY    25  23  92 W5        30.33S WCI  19
HAYWARD        FOG       19  16  88 CALM      30.32R VSB 1/4
SIREN          PTCLDY    21  20  96 CALM      30.33S
RICE LAKE      FOG       24  22  95 CALM      30.34R VSB 1/4
LADYSMITH      CLEAR     27  26  96 CALM      30.32S
EAU CLAIRE     NOT AVBL
MENOMONIE      SUNNY     28  27  96 CALM      30.34R
NEW RICHMOND   CLEAR     27  27 100 CALM      30.33S
OSCEOLA        CLEAR     22  21  96 CALM      30.36S
$$

WIZ003>005-009-010-017-018-180800-
NORTH CENTRAL WISCONSIN

CITY           SKY/WX    TMP DP  RH WIND       PRES   REMARKS
WOODRUFF       MOCLDY    32  25  76 N3        30.27S
RHINELANDER    CLOUDY    31  23  72 NW8       30.28R WCI  23
EAGLE RIVER    CLOUDY    31  22  70 NW9       30.26S WCI  22
LAND O LAKES   CLOUDY    31  24  75 NW6       30.27S WCI  25
PHILLIPS       PTCLDY    24  23  94 CALM      30.28S
TOMAHAWK       CLOUDY    32  24  73 CALM      30.28S
MEDFORD        PTCLDY    30  24  75 CALM      30.29S
MERRILL        CLOUDY    32  26  77 CALM      30.29S
$$

WIZ029-030-035-036-043>047-180800-
CENTRAL WISCONSIN

CITY           SKY/WX    TMP DP  RH WIND       PRES   REMARKS
WAUSAU         CLOUDY    33  24  69 NW7       30.28S WCI  27
MOSINEE        CLOUDY    32  28  86 N6        30.30S WCI  26
MARSHFIELD     CLOUDY    34  26  72 N6        30.30R WCI  29
STEVENS POINT  CLOUDY    33  26  76 N6        30.30S WCI  27
WAUPACA        CLOUDY    37  28  70 NW3       30.30S
WAUTOMA        NOT AVBL
WISC RAPIDS    CLOUDY    35  26  69 N7        30.32R WCI  29
CAMP DOUGLAS   PTCLDY    32  28  86 NW6       30.31R WCI  26
$$

WIZ011>013-019>022-031-037>040-048>050-180800-
NORTHEAST WISCONSIN

CITY           SKY/WX    TMP DP  RH WIND       PRES   REMARKS
ANTIGO         CLOUDY    31  26  78 N7        30.27S WCI  25
STURGEON BAY   CLOUDY    36  28  75 N7        30.28S WCI  30
GREEN BAY      CLOUDY    37  32  82 NW3       30.29S
MANITOWOC      NOT AVBL
APPLETON       CLOUDY    32  30  93 NW7       30.29S WCI  26
CLINTONVILLE   CLOUDY    36  28  75 NW6       30.29S WCI  31
OSHKOSH        PTCLDY    33  28  81 W5        30.29R WCI  29
$$

WIZ032>034-041-042-053>061-180800-
SOUTHWEST WISCONSIN

CITY           SKY/WX    TMP DP  RH WIND       PRES   REMARKS
LA CROSSE      MOCLDY    34  26  72 N3        30.33S
SPARTA         CLOUDY    34  27  75 N3        30.33S
VIROQUA        FAIR      33  29  88 CALM      30.29F
BOSCOBEL       PTCLDY    30  27  88 CALM      30.33R
PRAIRIE DU CHI PTCLDY    31  28  90 CALM      30.33R
PLATTEVILLE    FAIR      32  29  92 N3        30.31S
$$

WIZ056-057-062-063-064-067-068-180800-
SOUTH CENTRAL WISCONSIN

CITY           SKY/WX    TMP DP  RH WIND       PRES   REMARKS
BARABOO/DELLS  CLEAR     29  27  92 CALM      30.29S
LONE ROCK      NOT AVBL
WATERTOWN      CLEAR     34  32  90 NW3       30.28S
MADISON        CLEAR     32  29  88 N3        30.30S
MIDDLETON      FAIR      32  32  99 CALM      30.29F
MONROE         CLEAR    N/A N/A N/A N7        30.28R
JANESVILLE     CLEAR     37  32  81 CALM      30.28S
$$

WIZ051-052-058>065-066-070>072-180800-
SOUTHEAST WISCONSIN

CITY           SKY/WX    TMP DP  RH WIND       PRES   REMARKS
MILWAUKEE      MOCLDY    42  34  73 N3        30.29R
WAUKESHA       PTCLDY    36  32  87 N3        30.28F
MILWAUKEE/TIMM PTCLDY    37  32  81 NW3       30.28S
RACINE         MOCLDY    41  35  79 N6        30.29S
BURLINGTON     MOCLDY    38  34  85 N6        30.27S WCI  34
KENOSHA        CLOUDY    39  36  89 E3        30.27S
FOND DU LAC    CLEAR     32  28  85 NW7       30.29R WCI  26
SHEBOYGAN      CLEAR     36  31  82 NW6       30.27F WCI  31
WEST BEND      PTCLDY    36  32  87 NW3       30.27F
JUNEAU         CLEAR     33  30  88 NW3       30.29S
$$

LSZ147-162-180800-
LAKE SUPERIOR

STATION/POSITION TIME  TEMP    WIND        PRES    WAVE
                       AIR SEA DIR/SP/G            HT/PER
                 (UTC) (F)     (DEG/KT/KT) (MB)    (FT/S)
DEVILS ISLAND    0600   33     300/  9/ 10 1027.6F
PORT WING        0640   26     160/  3/  4 1027.1S
SAXON HARBOR     0600             CALM     1026.4
$$

LMZ867-665-643>646-180800-
LAKE MICHIGAN

STATION/POSITION TIME  TEMP    WIND        PRES    WAVE
                       AIR SEA DIR/SP/G            HT/PER
                 (UTC) (F)     (DEG/KT/KT) (MB)    (FT/S)
NORTHPORT PIER   0500   38     290/  6/ 10 1024.7S
SISTER BAY       0623   34        CALM       N/A
KEWAUNEE LAKESHO 0600   40     310/  4/  6 1026.0R
SHEBOYGAN LAKESH 0600   40     350/  8/  9 1026.1R
PORT WASHINGTON  0640   40     320/  3/  7 1025.7R
MILWAUKEE LAKESH 0600   44     330/  8/ 11   N/A
KENOSHA   LAKESH 0600   43     360/  5/  7   N/A
$$

TC  - TEMPERATURE IN CELSIUS
VSB - VISIBILITY IN STATUTE MILES
WCI - WIND CHILL INDEX
HX  - HEAT INDEX




USA.gov is the U.S. government's official web portal to all federal, state and local government web resources and services.